• In Belgium
  • List of Countries
  • For 7 days
  • Water Temperature
  • Satellite Maps
  • Weather Map
  • Weather Widgets
  • user-avatar
    Login

    Hourly Weather Zheleznovodsk

    Today, 23 October, Tuesday

    Time Temperature Precipitation Wind Pressure Humidity
    00:00 +12°C° 0 mm 1 mps 714 mmHg 91%
    01:00 +12°C° 0 mm 1 mps 713 mmHg 89%
    02:00 +12°C° 0 mm 1 mps 713 mmHg 87%
    03:00 +12°C° 0 mm 1 mps 713 mmHg 87%
    04:00 +12°C° 0 mm 1 mps 713 mmHg 86%
    05:00 +12°C° 0 mm 1 mps 713 mmHg 86%
    06:00 +12°C° 0 mm 1 mps 713 mmHg 85%
    07:00 +13°C° 0.1 mm 1 mps 714 mmHg 81%
    08:00 +14°C° 0.1 mm 1 mps 714 mmHg 78%
    09:00 +15°C° 0 mm 1 mps 714 mmHg 74%
    10:00 +16°C° 0 mm 1 mps 713 mmHg 72%
    11:00 +18°C° 0 mm 1 mps 713 mmHg 70%
    12:00 +18°C° 0 mm 2 mps 713 mmHg 68%
    13:00 +19°C° 0.1 mm 1 mps 713 mmHg 68%
    14:00 +19°C° 0.1 mm 1 mps 712 mmHg 69%
    15:00 +18°C° 0.1 mm 1 mps 712 mmHg 69%
    16:00 +18°C° 0.7 mm 1 mps 712 mmHg 74%
    17:00 +16°C° 0.7 mm 1 mps 712 mmHg 79%
    18:00 +15°C° 0.7 mm 1 mps 712 mmHg 83%
    19:00 +14°C° 0.5 mm 1 mps 711 mmHg 84%
    20:00 +14°C° 0.5 mm 1 mps 711 mmHg 84%
    21:00 +13°C° 0.5 mm 0 mps 711 mmHg 84%
    22:00 +14°C° 0.4 mm 1 mps 711 mmHg 85%
    23:00 +13°C° 0.4 mm 1 mps 710 mmHg 86%

    Tomorrow, 24 October, Wednesday

    Time Temperature Precipitation Wind Pressure Humidity
    00:00 +13°C° 0.4 mm 1 mps 710 mmHg 87%
    01:00 +13°C° 0.5 mm 1 mps 710 mmHg 87%
    02:00 +13°C° 0.5 mm 1 mps 709 mmHg 87%
    03:00 +12°C° 0.5 mm 1 mps 709 mmHg 87%
    04:00 +12°C° 0 mm 1 mps 709 mmHg 87%
    05:00 +12°C° 0 mm 2 mps 708 mmHg 87%
    06:00 +12°C° 0 mm 2 mps 707 mmHg 87%
    07:00 +13°C° 0 mm 2 mps 707 mmHg 83%
    08:00 +13°C° 0 mm 3 mps 707 mmHg 80%
    09:00 +13°C° 0 mm 3 mps 706 mmHg 77%
    10:00 +16°C° 0 mm 3 mps 706 mmHg 72%
    11:00 +17°C° 0 mm 3 mps 705 mmHg 68%
    12:00 +18°C° 0 mm 4 mps 704 mmHg 63%
    13:00 +18°C° 0 mm 4 mps 703 mmHg 61%
    14:00 +19°C° 0 mm 4 mps 702 mmHg 59%
    15:00 +19°C° 0 mm 4 mps 702 mmHg 57%
    16:00 +18°C° 0 mm 3 mps 701 mmHg 61%
    17:00 +17°C° 0 mm 3 mps 701 mmHg 64%
    18:00 +16°C° 0 mm 3 mps 700 mmHg 68%
    19:00 +16°C° 0 mm 2 mps 700 mmHg 68%
    20:00 +15°C° 0 mm 2 mps 700 mmHg 69%
    21:00 +15°C° 0 mm 2 mps 699 mmHg 69%
    22:00 +13°C° 0.1 mm 3 mps 699 mmHg 73%
    23:00 +13°C° 0.1 mm 3 mps 699 mmHg 77%

    Day after tomorrow, 25 October, Thursday

    Time Temperature Precipitation Wind Pressure Humidity
    00:00 +12°C° 0.1 mm 4 mps 699 mmHg 80%
    01:00 +12°C° 0 mm 3 mps 699 mmHg 82%
    02:00 +13°C° 0 mm 2 mps 699 mmHg 84%
    03:00 +12°C° 0 mm 2 mps 698 mmHg 86%
    04:00 +12°C° 0.1 mm 2 mps 698 mmHg 87%
    05:00 +12°C° 0.1 mm 1 mps 698 mmHg 89%
    06:00 +12°C° 0.1 mm 1 mps 698 mmHg 90%
    07:00 +12°C° 0.1 mm 2 mps 698 mmHg 87%
    08:00 +13°C° 0.1 mm 2 mps 698 mmHg 84%
    09:00 +13°C° 0.1 mm 2 mps 698 mmHg 81%
    10:00 +13°C° 0.4 mm 2 mps 698 mmHg 81%
    11:00 +13°C° 0.4 mm 2 mps 698 mmHg 82%
    12:00 +13°C° 0.4 mm 2 mps 698 mmHg 82%
    13:00 +11°C° 3.5 mm 4 mps 698 mmHg 83%
    14:00 +9°C° 3.5 mm 5 mps 699 mmHg 84%
    15:00 +8°C° 3.5 mm 6 mps 700 mmHg 86%
    16:00 +8°C° 0.8 mm 5 mps 701 mmHg 84%
    17:00 +7°C° 0.8 mm 4 mps 702 mmHg 82%
    18:00 +7°C° 0.8 mm 4 mps 703 mmHg 80%
    19:00 +8°C° 1 mm 3 mps 703 mmHg 80%
    20:00 +7°C° 1 mm 3 mps 704 mmHg 81%
    21:00 +7°C° 1 mm 2 mps 704 mmHg 82%
    22:00 +7°C° 0.4 mm 2 mps 704 mmHg 82%
    23:00 +7°C° 0.4 mm 2 mps 705 mmHg 82%

    26 October, Friday

    Time Temperature Precipitation Wind Pressure Humidity
    00:00 +8°C° 0.4 mm 1 mps 705 mmHg 82%
    01:00 +8°C° 0.3 mm 1 mps 705 mmHg 83%
    02:00 +6°C° 0.3 mm 2 mps 706 mmHg 85%
    03:00 +6°C° 0.3 mm 2 mps 706 mmHg 86%
    04:00 +6°C° 0.1 mm 2 mps 706 mmHg 86%
    05:00 +6°C° 0.1 mm 2 mps 707 mmHg 86%
    06:00 +6°C° 0.1 mm 2 mps 707 mmHg 87%
    07:00 +6°C° 0 mm 2 mps 708 mmHg 84%
    08:00 +7°C° 0 mm 2 mps 708 mmHg 81%
    09:00 +7°C° 0 mm 2 mps 709 mmHg 78%
    10:00 +8°C° 0 mm 2 mps 708 mmHg 75%
    11:00 +8°C° 0 mm 2 mps 708 mmHg 72%
    12:00 +9°C° 0 mm 2 mps 708 mmHg 69%
    13:00 +9°C° 0 mm 2 mps 708 mmHg 68%
    14:00 +10°C° 0 mm 3 mps 708 mmHg 67%
    15:00 +10°C° 0 mm 3 mps 708 mmHg 66%
    16:00 +9°C° 0 mm 3 mps 708 mmHg 69%
    17:00 +7°C° 0 mm 4 mps 708 mmHg 73%
    18:00 +7°C° 0 mm 4 mps 708 mmHg 76%
    19:00 +7°C° 0.8 mm 4 mps 709 mmHg 77%
    20:00 +7°C° 0.8 mm 5 mps 710 mmHg 79%
    21:00 +7°C° 0.8 mm 5 mps 711 mmHg 80%
    22:00 +6°C° 0.2 mm 5 mps 711 mmHg 80%
    23:00 +6°C° 0.2 mm 5 mps 712 mmHg 79%

    27 October, Saturday

    Time Temperature Precipitation Wind Pressure Humidity
    00:00 +5°C° 0.2 mm 5 mps 713 mmHg 78%
    01:00 +5°C° 0 mm 4 mps 713 mmHg 79%
    02:00 +5°C° 0 mm 4 mps 714 mmHg 79%
    03:00 +4°C° 0 mm 4 mps 714 mmHg 79%
    04:00 +4°C° 0 mm 3 mps 715 mmHg 80%
    05:00 +4°C° 0 mm 3 mps 715 mmHg 81%
    06:00 +4°C° 0 mm 3 mps 716 mmHg 82%
    07:00 +5°C° 0 mm 3 mps 716 mmHg 77%
    08:00 +7°C° 0 mm 3 mps 717 mmHg 72%
    09:00 +8°C° 0 mm 3 mps 717 mmHg 66%
    10:00 +9°C° 0 mm 2 mps 717 mmHg 63%
    11:00 +10°C° 0 mm 2 mps 717 mmHg 61%
    12:00 +12°C° 0 mm 2 mps 717 mmHg 58%
    13:00 +13°C° 0 mm 2 mps 717 mmHg 57%
    14:00 +13°C° 0 mm 2 mps 717 mmHg 57%
    15:00 +13°C° 0 mm 2 mps 717 mmHg 56%
    16:00 +12°C° 0 mm 2 mps 717 mmHg 62%
    17:00 +10°C° 0 mm 2 mps 717 mmHg 68%
    18:00 +9°C° 0 mm 2 mps 717 mmHg 73%
    19:00 +9°C° 0 mm 2 mps 717 mmHg 74%
    20:00 +8°C° 0 mm 2 mps 718 mmHg 76%
    21:00 +8°C° 0 mm 3 mps 718 mmHg 77%
    22:00 +8°C° 0 mm 2 mps 717 mmHg 74%
    23:00 +8°C° 0 mm 2 mps 717 mmHg 72%

    28 October, Sunday

    Time Temperature Precipitation Wind Pressure Humidity
    00:00 +7°C° 0 mm 2 mps 717 mmHg 69%
    01:00 +7°C° 0 mm 2 mps 717 mmHg 67%
    02:00 +7°C° 0 mm 2 mps 717 mmHg 65%
    03:00 +7°C° 0 mm 2 mps 717 mmHg 63%
    04:00 +7°C° 0 mm 2 mps 718 mmHg 61%
    05:00 +7°C° 0 mm 2 mps 718 mmHg 60%
    06:00 +7°C° 0 mm 2 mps 718 mmHg 58%
    07:00 +10°C° 0 mm 1 mps 718 mmHg 54%
    08:00 +12°C° 0 mm 1 mps 718 mmHg 49%
    09:00 +13°C° 0 mm 1 mps 719 mmHg 45%
    10:00 +15°C° 0 mm 1 mps 719 mmHg 41%
    11:00 +18°C° 0 mm 1 mps 719 mmHg 37%
    12:00 +18°C° 0 mm 2 mps 719 mmHg 34%
    13:00 +19°C° 0 mm 2 mps 719 mmHg 34%
    14:00 +19°C° 0 mm 2 mps 719 mmHg 34%
    15:00 +19°C° 0 mm 2 mps 719 mmHg 35%
    16:00 +17°C° 0 mm 2 mps 719 mmHg 40%
    17:00 +16°C° 0 mm 2 mps 719 mmHg 45%
    18:00 +14°C° 0 mm 2 mps 719 mmHg 50%
    19:00 +13°C° 0 mm 2 mps 719 mmHg 51%
    20:00 +13°C° 0 mm 2 mps 719 mmHg 52%
    21:00 +12°C° 0 mm 2 mps 719 mmHg 53%
    22:00 +12°C° 0 mm 2 mps 719 mmHg 53%
    23:00 +12°C° 0 mm 2 mps 719 mmHg 52%

    29 October, Monday

    Time Temperature Precipitation Wind Pressure Humidity
    00:00 +10°C° 0 mm 2 mps 719 mmHg 52%
    01:00 +10°C° 0 mm 2 mps 719 mmHg 52%
    02:00 +10°C° 0 mm 2 mps 719 mmHg 52%
    03:00 +10°C° 0 mm 2 mps 718 mmHg 51%
    04:00 +9°C° 0 mm 2 mps 718 mmHg 51%
    05:00 +9°C° 0 mm 2 mps 718 mmHg 51%
    06:00 +9°C° 0 mm 2 mps 718 mmHg 51%
    07:00 +10°C° 0 mm 2 mps 718 mmHg 49%
    08:00 +12°C° 0 mm 3 mps 718 mmHg 47%
    09:00 +13°C° 0 mm 3 mps 719 mmHg 46%
    10:00 +16°C° 0 mm 3 mps 718 mmHg 43%
    11:00 +17°C° 0 mm 4 mps 718 mmHg 41%
    12:00 +19°C° 0 mm 4 mps 718 mmHg 39%
    13:00 +19°C° 0 mm 4 mps 718 mmHg 41%
    14:00 +19°C° 0 mm 4 mps 717 mmHg 42%
    15:00 +19°C° 0 mm 4 mps 717 mmHg 44%
    16:00 +17°C° 0 mm 4 mps 717 mmHg 50%
    17:00 +16°C° 0 mm 3 mps 717 mmHg 57%
    18:00 +13°C° 0 mm 3 mps 717 mmHg 64%
    19:00 +13°C° 0 mm 3 mps 717 mmHg 64%
    20:00 +13°C° 0 mm 2 mps 717 mmHg 65%
    21:00 +13°C° 0 mm 2 mps 717 mmHg 65%
    22:00 +13°C° 0 mm 2 mps 717 mmHg 64%
    23:00 +12°C° 0 mm 2 mps 716 mmHg 63%
    Show more